When you browse on this site, cookies collect data to enhance your experience and personalize the content and advertising you see.
Visit our Privacy Policy to learn more. By continuing to use the site, you agree to this use of cookies and data.
  • In Czech Republic
  • List of Countries
  • For 7 days
  • Water Temperature
  • Satellite Maps
  • Weather Map
  • Weather Widgets
  • user-avatar
    Login

    Hourly Weather Gwatemala

    Today, 16 July, Tuesday

    Time Temperature Precipitation Wind Pressure Humidity
    00:00 +17°C° 0 mm 2 mps 637 mmHg 98%
    01:00 +18°C° 0.8 mm 1 mps 637 mmHg 97%
    02:00 +18°C° 0.8 mm 1 mps 637 mmHg 95%
    03:00 +18°C° 0.8 mm 1 mps 636 mmHg 94%
    04:00 +18°C° 0.1 mm 1 mps 636 mmHg 94%
    05:00 +18°C° 0.1 mm 1 mps 636 mmHg 93%
    06:00 +18°C° 0.1 mm 1 mps 636 mmHg 92%
    07:00 +19°C° 0 mm 1 mps 637 mmHg 88%
    08:00 +20°C° 0 mm 1 mps 638 mmHg 83%
    09:00 +22°C° 0 mm 1 mps 639 mmHg 79%
    10:00 +23°C° 0.3 mm 1 mps 639 mmHg 77%
    11:00 +24°C° 0.3 mm 1 mps 639 mmHg 75%
    12:00 +24°C° 0.3 mm 1 mps 639 mmHg 73%
    13:00 +24°C° 0.6 mm 1 mps 639 mmHg 76%
    14:00 +24°C° 0.6 mm 1 mps 638 mmHg 79%
    15:00 +21°C° 0.6 mm 0 mps 638 mmHg 82%
    16:00 +20°C° 0.6 mm 0 mps 638 mmHg 86%
    17:00 +21°C° 0.6 mm 1 mps 637 mmHg 89%
    18:00 +20°C° 0.6 mm 1 mps 637 mmHg 93%
    19:00 +20°C° 0.5 mm 1 mps 637 mmHg 93%
    20:00 +19°C° 0.5 mm 1 mps 638 mmHg 93%
    21:00 +18°C° 0.5 mm 1 mps 638 mmHg 93%
    22:00 +18°C° 0 mm 1 mps 638 mmHg 94%
    23:00 +18°C° 0 mm 1 mps 638 mmHg 94%

    Tomorrow, 17 July, Wednesday

    Time Temperature Precipitation Wind Pressure Humidity
    00:00 +16°C° 0 mm 1 mps 638 mmHg 95%
    01:00 +16°C° 0 mm 1 mps 637 mmHg 95%
    02:00 +16°C° 0 mm 1 mps 636 mmHg 95%
    03:00 +16°C° 0 mm 1 mps 636 mmHg 94%
    04:00 +15°C° 0 mm 1 mps 636 mmHg 94%
    05:00 +15°C° 0 mm 1 mps 636 mmHg 94%
    06:00 +15°C° 0 mm 1 mps 636 mmHg 94%
    07:00 +18°C° 0 mm 1 mps 637 mmHg 87%
    08:00 +20°C° 0 mm 1 mps 638 mmHg 81%
    09:00 +21°C° 0 mm 2 mps 639 mmHg 74%
    10:00 +24°C° 0 mm 2 mps 639 mmHg 68%
    11:00 +25°C° 0 mm 2 mps 640 mmHg 62%
    12:00 +26°C° 0 mm 2 mps 640 mmHg 56%
    13:00 +26°C° 0.2 mm 2 mps 639 mmHg 59%
    14:00 +26°C° 0.2 mm 1 mps 639 mmHg 62%
    15:00 +26°C° 0.2 mm 1 mps 638 mmHg 65%
    16:00 +24°C° 0.8 mm 1 mps 638 mmHg 74%
    17:00 +23°C° 0.8 mm 1 mps 638 mmHg 84%
    18:00 +21°C° 0.8 mm 1 mps 637 mmHg 93%
    19:00 +20°C° 0.2 mm 1 mps 637 mmHg 94%
    20:00 +19°C° 0.2 mm 1 mps 637 mmHg 95%
    21:00 +18°C° 0.2 mm 1 mps 637 mmHg 96%
    22:00 +16°C° 0 mm 1 mps 637 mmHg 96%
    23:00 +16°C° 0 mm 1 mps 637 mmHg 96%

    Day after tomorrow, 18 July, Thursday

    Time Temperature Precipitation Wind Pressure Humidity
    00:00 +16°C° 0 mm 1 mps 637 mmHg 97%
    01:00 +16°C° 0 mm 1 mps 636 mmHg 96%
    02:00 +16°C° 0 mm 1 mps 636 mmHg 96%
    03:00 +16°C° 0 mm 1 mps 635 mmHg 96%
    04:00 +16°C° 0 mm 1 mps 636 mmHg 96%
    05:00 +15°C° 0 mm 1 mps 636 mmHg 95%
    06:00 +15°C° 0 mm 1 mps 636 mmHg 95%
    07:00 +18°C° 0 mm 1 mps 637 mmHg 89%
    08:00 +21°C° 0 mm 1 mps 638 mmHg 84%
    09:00 +23°C° 0 mm 1 mps 639 mmHg 78%
    10:00 +23°C° 0.5 mm 1 mps 639 mmHg 78%
    11:00 +24°C° 0.5 mm 1 mps 639 mmHg 78%
    12:00 +24°C° 0.5 mm 1 mps 639 mmHg 78%
    13:00 +24°C° 1.1 mm 1 mps 638 mmHg 79%
    14:00 +24°C° 1.1 mm 1 mps 638 mmHg 80%
    15:00 +24°C° 1.1 mm 1 mps 638 mmHg 81%
    16:00 +23°C° 1.1 mm 1 mps 637 mmHg 85%
    17:00 +22°C° 1.1 mm 1 mps 637 mmHg 90%
    18:00 +21°C° 1.1 mm 1 mps 637 mmHg 95%
    19:00 +20°C° 0.3 mm 1 mps 637 mmHg 95%
    20:00 +19°C° 0.3 mm 1 mps 637 mmHg 95%
    21:00 +18°C° 0.3 mm 1 mps 637 mmHg 95%
    22:00 +16°C° 0 mm 1 mps 637 mmHg 96%
    23:00 +16°C° 0 mm 1 mps 637 mmHg 96%

    19 July, Friday

    Time Temperature Precipitation Wind Pressure Humidity
    00:00 +16°C° 0 mm 1 mps 637 mmHg 97%
    01:00 +16°C° 0 mm 1 mps 636 mmHg 96%
    02:00 +16°C° 0 mm 1 mps 636 mmHg 96%
    03:00 +16°C° 0 mm 1 mps 635 mmHg 96%
    04:00 +16°C° 0 mm 1 mps 636 mmHg 96%
    05:00 +15°C° 0 mm 1 mps 636 mmHg 96%
    06:00 +15°C° 0 mm 1 mps 636 mmHg 95%
    07:00 +18°C° 0 mm 1 mps 637 mmHg 89%
    08:00 +20°C° 0 mm 1 mps 638 mmHg 83%
    09:00 +21°C° 0 mm 1 mps 638 mmHg 77%
    10:00 +23°C° 0 mm 1 mps 639 mmHg 71%
    11:00 +24°C° 0 mm 1 mps 639 mmHg 65%
    12:00 +26°C° 0 mm 1 mps 639 mmHg 59%
    13:00 +26°C° 0.1 mm 1 mps 639 mmHg 61%
    14:00 +25°C° 0.1 mm 1 mps 638 mmHg 62%
    15:00 +25°C° 0.1 mm 1 mps 638 mmHg 64%
    16:00 +24°C° 0.2 mm 1 mps 637 mmHg 71%
    17:00 +23°C° 0.2 mm 1 mps 637 mmHg 79%
    18:00 +22°C° 0.2 mm 1 mps 637 mmHg 87%
    19:00 +20°C° 0 mm 1 mps 637 mmHg 89%
    20:00 +19°C° 0 mm 1 mps 637 mmHg 91%
    21:00 +18°C° 0 mm 1 mps 637 mmHg 94%
    22:00 +18°C° 0 mm 1 mps 637 mmHg 95%
    23:00 +16°C° 0 mm 1 mps 637 mmHg 96%

    20 July, Saturday

    Time Temperature Precipitation Wind Pressure Humidity
    00:00 +16°C° 0 mm 1 mps 636 mmHg 96%
    01:00 +16°C° 0 mm 1 mps 636 mmHg 96%
    02:00 +16°C° 0 mm 1 mps 636 mmHg 96%
    03:00 +15°C° 0 mm 1 mps 635 mmHg 96%
    04:00 +15°C° 0 mm 1 mps 635 mmHg 95%
    05:00 +15°C° 0 mm 1 mps 635 mmHg 94%
    06:00 +15°C° 0 mm 2 mps 635 mmHg 93%
    07:00 +18°C° 0 mm 1 mps 636 mmHg 85%
    08:00 +20°C° 0 mm 1 mps 637 mmHg 78%
    09:00 +23°C° 0 mm 1 mps 638 mmHg 70%
    10:00 +24°C° 0 mm 1 mps 639 mmHg 66%
    11:00 +25°C° 0 mm 1 mps 639 mmHg 62%
    12:00 +26°C° 0 mm 1 mps 639 mmHg 58%
    13:00 +26°C° 0.5 mm 1 mps 638 mmHg 63%
    14:00 +26°C° 0.5 mm 1 mps 637 mmHg 68%
    15:00 +25°C° 0.5 mm 1 mps 637 mmHg 73%
    16:00 +24°C° 1.2 mm 1 mps 637 mmHg 79%
    17:00 +23°C° 1.2 mm 1 mps 636 mmHg 85%
    18:00 +20°C° 1.2 mm 0 mps 636 mmHg 91%
    19:00 +19°C° 1.4 mm 0 mps 636 mmHg 92%
    20:00 +20°C° 1.4 mm 1 mps 637 mmHg 94%
    21:00 +18°C° 1.4 mm 1 mps 637 mmHg 95%
    22:00 +18°C° 1.8 mm 1 mps 637 mmHg 95%
    23:00 +18°C° 1.8 mm 1 mps 637 mmHg 96%

    21 July, Sunday

    Time Temperature Precipitation Wind Pressure Humidity
    00:00 +18°C° 1.8 mm 1 mps 637 mmHg 96%
    01:00 +18°C° 1.4 mm 1 mps 636 mmHg 96%
    02:00 +18°C° 1.4 mm 1 mps 636 mmHg 96%
    03:00 +18°C° 1.4 mm 1 mps 635 mmHg 96%
    04:00 +16°C° 0 mm 1 mps 635 mmHg 95%
    05:00 +16°C° 0 mm 1 mps 635 mmHg 94%
    06:00 +16°C° 0 mm 1 mps 635 mmHg 94%
    07:00 +19°C° 0 mm 1 mps 636 mmHg 87%
    08:00 +21°C° 0 mm 1 mps 637 mmHg 81%
    09:00 +23°C° 0 mm 1 mps 638 mmHg 74%
    10:00 +24°C° 0.1 mm 1 mps 638 mmHg 70%
    11:00 +25°C° 0.1 mm 1 mps 638 mmHg 66%
    12:00 +27°C° 0.1 mm 1 mps 639 mmHg 62%
    13:00 +26°C° 1 mm 1 mps 638 mmHg 67%
    14:00 +25°C° 1 mm 1 mps 637 mmHg 72%
    15:00 +25°C° 1 mm 1 mps 637 mmHg 77%
    16:00 +24°C° 0.7 mm 1 mps 637 mmHg 81%
    17:00 +20°C° 0.7 mm 0 mps 636 mmHg 86%
    18:00 +19°C° 0.7 mm 0 mps 636 mmHg 91%
    19:00 +20°C° 0.5 mm 1 mps 636 mmHg 91%
    20:00 +20°C° 0.5 mm 1 mps 637 mmHg 91%
    21:00 +19°C° 0.5 mm 1 mps 637 mmHg 92%
    22:00 +18°C° 0.2 mm 1 mps 637 mmHg 91%
    23:00 +18°C° 0.2 mm 1 mps 637 mmHg 91%
    Show more